Terminal Aerodrome Forecast
Issued by NWS Miami, FL

Home | Current Version | Previous Version | Text Only | Print | Product List | Glossary On
Versions: 1 2 3 4 5 6 7 8 9 10 11 12 13 14 15 16 17 18 19 20 21 22 23 24 25 26 27 28 29 30 31 32 33 34 35 36 37 38 39 40 41 42 43 44 45 46 47 48 49 50
000
FTUS42 KMFL 030536
TAFAPF
TAF
KAPF 030536Z 0306/0406 VRB03KT P6SM SCT250
     FM031400 07006KT P6SM SCT035
     FM031700 23008KT P6SM VCTS SCT035CB BKN060 PROB30 0318/0322
      TSRA BKN035CB
     FM032300 08003KT P6SM FEW025 BKN250=

USA.gov is the U.S. government's official web portal to all federal, state and local government web resources and services.